Theta_e
284 284 284 284 284 284 285 285 285 285 285 285 285 285 285 284 284 283 284 284 283 283 282 282 281 281 281 280 279 280 280 281 280 281 281 281 281 281 281 281 282 281 281 281 280 281 281 281 282 284 286 287 287 287 289 289 289 289 289 289 289 289 289 291 291 292 290 288 289 289 289 290 293 293 292 292 295 298 299 297 297 297 298 298 298
283 282 283 283 284 284 284 284 284 283 284 284 284 284 284 284 283 283 284 284 284 283 283 282 282 282 281 281 281 280 281 280 280 281 281 281 281 281 281 281 281 281 281 281 281 280 280 280 281 282 284 286 287 287 288 288 288 288 288 288 289 288 288 290 291 290 287 286 286 286 288 290 292 293 292 292 294 296 298 298 297 296 296 297 297
280 280 281 281 282 282 283 283 283 282 282 282 282 282 282 282 283 283 283 283 283 284 283 282 283 283 282 282 281 281 282 282 281 282 281 281 281 281 281 281 281 281 281 281 280 280 280 280 280 281 282 284 285 286 286 287 287 287 288 287 286 288 288 290 290 290 286 288 288 286 284 284 288 291 294 294 294 294 296 297 298 297 296 295 296
279 279 279 280 281 281 281 281 281 281 281 281 281 281 282 282 282 282 282 283 283 283 284 283 283 283 283 283 283 282 281 282 282 282 282 281 281 281 282 281 281 280 281 280 280 280 280 280 281 281 281 282 283 284 285 285 286 287 287 287 287 285 286 287 290 290 289 287 282 283 284 284 282 285 290 292 294 294 294 295 297 297 297 296 296
277 278 278 279 280 279 279 280 280 280 280 280 281 281 281 281 281 281 281 282 282 283 283 283 283 282 282 282 283 282 282 281 281 281 281 282 282 281 281 282 281 280 280 280 280 279 280 280 280 281 281 282 282 283 284 285 286 287 287 286 286 285 284 286 287 289 289 289 286 284 282 281 281 286 288 289 293 293 293 294 295 296 296 296 296
277 277 278 279 279 279 279 280 280 279 279 280 280 280 279 279 279 280 280 280 281 281 282 282 281 281 280 279 278 278 278 278 278 278 279 280 280 281 281 281 281 280 280 280 280 280 279 279 280 281 281 281 282 282 283 285 285 285 286 286 286 286 285 284 284 287 288 289 289 288 287 283 283 284 285 282 292 295 294 294 293 294 295 295 296
277 278 279 279 279 278 278 278 279 279 279 279 279 279 279 278 277 278 277 278 279 279 280 280 279 280 279 279 279 278 277 278 279 280 280 280 281 280 280 281 281 280 279 279 279 279 279 279 280 280 280 280 281 281 281 283 284 285 286 286 285 286 285 283 283 284 286 287 288 288 288 288 287 284 281 284 282 286 290 291 292 294 292 293 294
276 278 279 278 277 278 277 278 278 278 278 278 277 277 277 276 276 277 278 278 279 278 278 279 278 279 279 279 279 279 278 278 279 279 280 280 279 279 280 279 280 280 279 279 279 279 279 278 279 279 279 280 281 280 281 282 283 285 285 285 285 285 285 283 283 284 283 283 286 286 287 287 287 287 286 283 282 281 284 289 292 293 293 292 292
277 277 278 277 276 277 278 277 278 277 277 276 275 274 274 274 275 276 276 277 277 277 277 277 278 279 279 278 276 277 278 278 279 279 278 278 278 278 278 278 279 279 279 279 279 278 278 278 278 278 278 279 281 281 281 281 282 283 283 284 284 284 284 284 283 283 283 283 284 284 285 285 286 286 286 286 282 281 281 283 284 288 290 292 293
277 277 278 277 277 277 278 277 276 276 276 276 275 275 273 273 275 275 274 275 275 277 278 278 278 278 277 276 275 275 276 276 277 276 276 277 276 276 277 277 277 277 278 278 278 278 277 278 277 278 278 279 279 280 281 281 281 283 284 284 284 283 283 283 282 283 283 284 284 283 283 283 283 283 284 284 284 284 281 282 284 284 283 287 292
276 276 277 276 277 277 276 275 275 275 275 275 274 273 273 272 273 273 272 273 274 274 273 273 275 276 275 275 275 274 274 274 274 274 274 274 274 275 275 275 276 276 277 277 277 276 276 277 277 277 279 279 279 278 279 281 281 282 283 283 283 282 282 282 282 282 282 282 282 283 282 282 282 281 282 283 283 282 282 282 283 284 284 284 287
275 275 275 276 275 275 275 274 273 274 274 273 273 272 272 271 272 271 271 272 273 273 272 273 273 273 274 274 274 274 274 273 273 273 273 273 273 273 274 274 274 275 275 275 275 276 275 275 276 276 277 278 278 278 277 276 278 281 282 282 282 282 282 281 280 280 280 281 280 282 282 284 284 283 284 284 283 283 283 282 283 284 285 285 287
274 274 275 275 273 272 272 273 272 272 272 272 271 271 271 271 271 270 270 271 271 272 272 272 273 273 273 273 273 274 273 273 273 272 273 273 273 273 273 272 273 273 273 273 274 274 275 274 275 275 276 277 278 278 277 277 276 276 279 281 281 281 280 280 280 279 280 279 279 281 281 282 282 284 285 284 284 284 283 282 283 285 283 284 287
274 275 274 274 273 273 271 272 272 271 271 271 270 270 270 270 270 270 270 271 271 271 272 272 272 272 273 272 272 272 272 272 272 272 272 272 272 272 272 272 272 272 272 273 273 274 275 275 275 275 276 277 277 277 277 277 276 275 276 277 279 279 280 280 279 280 280 280 281 280 280 280 282 283 284 284 283 283 282 282 282 283 284 283 285
274 273 273 273 273 272 271 271 270 270 270 270 270 270 269 269 269 269 269 270 270 270 270 270 270 271 271 271 271 271 271 272 272 272 272 272 272 272 272 272 272 272 272 273 274 274 274 274 274 275 275 275 276 276 276 275 275 275 275 276 277 278 279 279 279 279 278 279 279 279 279 279 280 281 282 283 284 284 283 283 282 280 281 282 282
273 273 272 272 272 271 271 270 270 270 271 269 269 269 269 268 269 268 268 269 269 270 269 270 270 270 270 270 271 271 272 272 272 272 272 272 271 271 271 271 272 272 272 272 272 273 273 273 273 273 274 274 274 275 275 275 274 274 274 275 275 278 278 278 278 279 278 278 278 279 279 279 280 280 281 281 282 283 284 284 283 282 279 278 281
273 273 272 271 271 271 271 270 270 271 269 268 268 268 268 268 268 268 268 269 269 269 269 269 269 270 270 270 271 270 270 270 270 270 270 271 271 271 271 271 271 271 271 272 271 272 272 272 272 272 273 273 274 274 274 274 273 273 273 274 274 275 276 277 278 278 278 278 278 278 278 279 280 280 281 281 281 282 283 284 284 283 282 279 278
274 273 272 272 272 271 270 271 270 269 269 268 269 271 270 268 267 267 268 268 268 269 269 269 269 269 269 270 270 270 270 270 270 270 270 270 270 270 271 270 270 270 271 271 271 271 271 272 271 271 272 272 272 272 273 273 273 273 273 273 274 275 275 276 277 278 278 278 278 278 278 278 279 280 280 281 281 281 282 283 284 284 284 281 280
272 272 271 272 271 270 270 269 270 271 269 270 269 269 269 268 268 268 267 268 268 268 269 269 269 269 269 269 269 270 270 270 270 270 270 269 269 270 270 270 270 270 270 270 270 270 270 270 271 271 271 271 271 271 272 272 272 272 272 272 274 274 275 275 276 277 277 278 277 277 278 278 279 279 280 281 281 281 281 282 283 284 284 283 282
273 271 271 271 271 269 269 270 270 267 268 269 269 270 272 271 268 267 267 267 268 268 268 268 269 269 269 269 269 270 270 269 269 269 269 269 269 269 269 269 269 270 270 270 270 269 270 269 270 270 270 270 270 271 271 271 271 271 271 271 272 274 274 275 275 277 277 277 277 276 277 277 278 279 279 280 280 281 281 281 282 283 283 284 283
273 271 271 271 269 269 270 270 269 268 268 268 266 266 266 267 266 267 266 266 267 268 269 268 269 269 269 269 269 269 269 269 269 269 269 269 269 270 269 269 270 269 270 269 269 269 269 269 269 269 269 269 270 270 271 271 271 271 271 271 271 272 273 274 275 275 276 277 276 276 277 277 278 278 278 279 280 280 281 281 282 282 282 283 283
272 271 271 272 269 269 271 269 267 267 267 270 271 270 268 266 266 266 266 266 266 266 267 268 268 268 268 268 268 269 269 269 269 269 268 269 269 269 269 269 269 269 269 269 269 269 269 269 269 269 269 269 269 270 270 270 270 270 270 271 271 271 272 273 274 274 275 276 276 276 276 277 278 278 278 278 279 279 280 280 281 281 282 282 284
270 271 273 270 270 269 268 268 266 266 266 266 266 266 265 265 266 266 266 266 267 267 267 267 267 267 268 268 268 268 269 268 268 268 268 268 268 269 269 268 268 269 269 269 269 269 269 269 269 269 269 269 269 269 270 270 270 270 270 270 271 271 271 272 273 273 274 275 275 276 276 277 278 278 278 278 279 279 279 280 280 281 281 282 283
274 273 270 269 269 269 269 266 265 265 265 267 267 265 265 265 265 266 265 266 266 267 267 267 267 267 268 268 268 268 268 268 268 268 268 268 268 268 269 268 268 269 268 269 269 269 269 269 269 269 269 269 269 269 270 270 270 270 270 270 271 271 271 271 271 273 274 275 275 275 276 277 277 277 277 278 278 278 279 279 279 280 282 282 283
272 271 270 268 269 268 266 265 265 264 265 267 266 265 265 265 265 265 266 266 266 266 267 267 267 266 267 267 268 268 267 267 267 267 267 268 268 268 268 268 268 268 268 268 269 269 269 269 268 268 268 269 269 269 269 269 269 270 269 269 270 270 270 271 271 272 273 274 274 275 275 276 277 276 277 277 278 278 278 279 279 279 280 282 283
271 271 268 267 269 267 265 265 265 265 264 264 264 264 265 265 265 265 265 265 266 266 266 265 266 266 266 267 267 267 267 267 267 267 267 267 267 267 267 268 268 267 268 268 268 268 269 268 269 269 269 269 269 269 269 269 269 269 269 269 270 270 270 270 271 271 272 273 273 274 276 276 277 277 277 278 278 278 278 278 279 279 280 281 282
269 270 269 268 266 268 266 265 265 264 264 264 264 265 265 265 265 265 265 265 265 265 265 265 266 266 266 266 267 267 267 267 267 267 267 267 267 267 267 267 268 267 267 267 268 268 268 269 269 269 269 269 269 269 269 269 269 269 269 269 269 270 270 271 271 271 271 272 273 275 275 276 277 277 277 277 277 278 279 279 279 279 280 280 281
270 268 268 266 266 266 265 265 268 265 264 264 264 264 265 265 264 265 265 265 265 265 265 265 265 266 266 266 266 267 266 266 267 267 267 267 267 267 267 267 267 267 267 267 267 268 268 269 269 269 269 269 269 269 269 269 269 269 269 269 269 269 270 270 270 271 271 272 272 272 273 274 275 276 276 276 276 276 277 276 279 280 280 280 280
268 269 267 266 266 264 266 266 265 268 265 263 263 264 264 264 265 265 265 265 265 265 264 264 265 265 265 266 266 266 266 266 266 266 266 266 266 266 267 267 267 267 267 267 268 268 268 268 268 269 269 269 269 268 269 269 268 269 269 269 269 269 269 269 269 270 270 271 271 272 272 273 274 275 277 277 277 277 276 276 277 279 280 280 280
266 267 266 266 266 265 264 265 268 265 262 262 262 263 263 263 264 264 264 264 264 264 264 264 264 264 265 265 265 266 266 266 265 265 265 266 265 266 266 266 266 267 267 267 267 268 268 268 268 268 268 269 269 269 270 272 272 269 269 269 269 269 269 269 269 269 269 270 271 271 272 274 275 275 276 276 277 277 278 277 277 278 278 279 280
266 264 265 265 265 265 265 267 264 262 262 262 262 262 263 263 263 263 263 264 264 263 264 264 264 264 265 265 265 265 265 265 265 265 265 265 265 265 265 266 266 266 267 267 268 267 268 268 268 268 268 268 269 269 272 273 274 274 272 270 269 269 269 269 269 268 268 269 270 270 271 272 273 274 274 276 276 277 278 278 279 280 280 279 278
265 264 265 265 264 264 263 263 262 262 262 262 262 262 262 262 263 263 263 263 263 263 263 263 264 264 264 264 264 264 264 264 264 264 264 264 265 265 265 265 266 266 267 267 267 267 268 268 268 268 268 268 269 271 273 274 275 275 275 272 271 270 270 269 269 269 269 269 269 269 270 271 271 271 272 272 274 276 277 278 279 279 280 281 281
265 264 264 266 264 265 264 263 262 261 262 263 263 262 262 262 262 263 263 263 263 264 263 263 263 263 264 264 264 263 263 263 263 263 264 264 264 264 264 265 265 266 267 267 267 268 267 268 268 268 268 269 269 272 274 275 275 276 276 275 273 272 271 271 270 270 270 270 270 270 270 270 271 273 273 272 272 273 276 277 278 279 280 281 281
265 264 263 265 266 264 263 263 262 263 263 263 263 262 262 263 263 263 262 262 262 262 262 262 263 263 263 263 263 262 262 262 263 263 263 263 263 263 264 265 266 267 267 267 268 268 268 268 268 268 268 269 269 272 274 275 275 276 276 276 274 273 273 272 271 271 271 271 271 270 270 270 271 271 272 272 273 274 275 276 277 278 279 280 281
265 264 263 263 264 263 262 262 262 263 263 263 262 262 263 262 262 262 262 262 262 262 262 262 262 262 262 262 262 262 262 262 262 262 263 263 263 264 264 265 266 266 267 267 268 268 269 269 269 269 269 269 269 273 275 275 276 277 277 277 275 275 274 274 273 272 272 272 272 272 272 272 272 272 273 273 273 273 274 275 276 277 279 280 281
265 264 263 265 264 262 262 262 263 263 262 262 261 262 262 261 262 261 261 261 261 261 261 261 261 261 261 262 261 261 261 261 262 262 262 262 263 264 264 265 266 267 268 269 269 269 269 270 270 270 269 269 270 274 276 277 277 278 278 276 276 275 274 274 274 274 273 273 273 273 273 273 273 273 274 276 276 275 274 274 274 275 277 279 280
265 264 263 264 264 263 263 263 263 262 261 261 262 261 261 260 260 261 260 261 261 260 260 261 260 261 261 261 261 261 261 261 262 262 262 262 263 263 264 266 266 267 268 268 269 270 270 271 271 271 271 270 271 274 276 277 278 278 278 277 276 276 276 275 275 275 275 274 274 274 273 273 274 274 276 277 277 278 275 274 274 275 277 278 279
265 265 263 264 265 264 264 263 262 261 262 262 262 261 260 259 259 260 260 260 260 259 260 260 260 260 260 261 261 261 261 261 261 261 262 262 263 264 264 266 266 267 267 269 270 270 271 272 272 272 272 272 272 275 277 278 279 279 279 278 277 277 276 277 277 276 276 275 275 276 276 274 274 274 277 278 278 277 275 275 275 275 276 277 279
265 263 263 263 265 265 264 263 261 261 261 261 261 260 259 258 259 259 259 259 259 259 260 259 260 260 260 261 261 261 261 261 261 261 262 262 263 264 265 266 267 268 268 270 271 271 272 273 274 274 276 275 275 276 278 279 279 280 279 278 278 277 277 277 277 278 277 276 276 277 278 277 276 276 278 279 279 278 276 275 275 275 275 276 278
265 265 265 264 265 265 263 261 261 261 262 261 260 259 259 258 258 259 258 258 259 259 260 260 260 260 260 261 261 261 261 261 261 262 262 263 264 264 265 266 267 268 269 270 271 272 272 273 275 276 277 277 276 276 278 280 280 281 281 279 278 277 276 277 277 277 277 278 277 277 278 279 279 279 279 279 279 280 277 276 276 275 275 276 280
264 264 265 263 265 264 261 260 261 261 261 260 260 258 258 258 258 258 257 258 259 260 260 260 260 260 260 261 261 261 261 261 262 262 263 263 264 265 266 266 267 269 270 270 271 272 273 274 276 278 279 279 278 277 279 280 280 281 281 280 279 278 278 277 277 277 277 277 278 278 278 279 280 280 280 280 280 280 280 278 277 276 277 279 281
265 265 264 265 264 261 261 260 261 261 260 260 259 258 258 257 257 257 258 259 259 260 259 260 260 260 260 260 260 261 261 262 262 262 262 263 264 265 266 267 268 269 270 270 271 273 274 274 276 277 278 279 279 280 280 280 280 281 281 281 279 279 279 278 277 277 278 278 278 278 279 280 280 281 281 281 282 281 281 279 278 280 280 281 280
263 263 263 263 262 261 259 259 260 260 260 260 259 257 257 257 256 257 259 259 259 259 259 259 259 259 259 260 260 261 261 262 262 263 263 263 264 265 266 267 268 269 269 270 272 272 273 274 274 276 277 278 278 279 279 279 279 280 280 280 280 279 280 278 277 276 277 278 279 279 280 280 281 281 282 282 281 282 281 280 281 281 281 281 281
264 263 262 262 262 261 260 259 260 260 260 260 258 257 257 256 257 258 258 259 259 259 259 258 258 258 259 259 260 261 262 262 262 263 263 263 264 265 266 267 268 268 269 270 271 272 272 273 273 274 275 277 277 277 278 278 278 279 279 280 280 280 279 278 278 277 277 278 278 279 280 280 281 281 282 282 282 282 281 281 281 281 281 281 281
262 261 262 262 262 259 259 259 259 259 260 259 258 257 256 256 257 258 258 258 258 258 257 257 257 258 259 259 260 261 262 262 263 263 263 263 264 265 265 267 268 268 270 269 270 271 271 272 272 273 274 275 276 276 277 277 278 278 278 279 279 279 278 278 277 277 278 278 279 280 280 280 281 281 281 281 281 281 282 282 281 281 281 280 280
262 261 261 260 260 259 258 257 258 259 259 259 258 258 256 256 258 258 258 258 257 257 256 257 257 258 258 260 260 261 262 262 263 263 264 264 264 265 265 266 267 268 269 269 270 270 271 271 271 272 273 274 275 275 275 275 276 277 277 278 278 278 278 278 278 277 278 279 279 279 279 280 280 281 280 280 280 281 281 282 281 281 280 280 280
261 260 260 259 259 257 257 257 257 258 258 258 258 258 257 258 257 258 258 257 257 256 256 257 257 258 259 260 260 261 261 262 263 263 264 264 265 265 265 266 267 267 268 269 269 270 270 270 270 271 272 273 273 274 274 274 275 275 275 276 276 276 277 277 276 277 277 277 277 278 278 279 279 280 281 281 281 281 281 281 280 280 280 280 280
261 260 260 259 258 257 256 256 256 257 257 257 257 257 257 257 257 258 257 257 256 256 256 256 257 258 259 260 260 261 261 261 262 263 263 264 264 265 265 265 266 267 268 268 269 269 269 269 270 270 271 271 272 272 272 273 273 274 274 275 275 275 274 274 274 275 275 276 276 278 278 279 279 279 279 280 280 280 280 280 280 280 280 281 281
260 260 259 258 258 257 256 256 256 257 257 257 257 257 257 257 257 257 257 256 255 256 256 256 257 259 259 260 261 261 261 261 262 263 263 264 264 264 265 267 269 269 270 269 269 269 270 270 270 270 269 269 270 271 272 275 274 275 274 274 274 274 274 274 275 276 275 276 276 276 276 276 276 277 277 278 278 279 279 279 280 279 280 280 280
260 260 259 258 258 257 256 256 256 256 257 256 256 257 257 257 257 257 256 255 255 255 255 256 258 258 259 260 260 260 261 261 262 262 263 263 266 269 268 267 268 271 273 273 273 270 270 270 270 270 271 269 269 271 274 275 275 275 275 275 275 275 275 274 275 275 275 274 273 273 273 273 273 273 274 275 276 278 278 279 280 280 280 280 280
260 259 258 258 257 257 256 255 255 256 256 256 256 256 256 256 257 257 256 255 255 255 255 256 257 258 259 259 260 260 261 261 262 262 262 263 263 265 269 270 271 271 272 272 272 272 272 272 271 269 271 273 273 274 274 274 274 274 275 275 275 275 275 274 274 273 272 271 271 270 270 271 271 271 271 271 272 273 274 276 278 279 280 280 279
Wind_Speed
10 10 11 14 16 17 17 16 15 15 15 16 18 17 17 16 15 16 14 13 13 13 12 11 12 11 9 8 9 8 7 6 6 6 5 5 5 5 6 5 5 6 7 8 8 9 9 10 11 11 11 10 10 10 10 11 11 11 10 9 10 9 8 8 8 7 7 7 5 6 7 8 8 8 9 8 8 6 5 5 5 5 6 6 5
14 15 15 15 15 18 17 16 16 17 15 16 16 17 15 16 16 15 14 15 14 14 13 13 12 12 12 12 11 11 9 8 8 7 6 5 6 6 5 5 5 6 7 7 8 8 8 9 10 11 11 10 11 12 12 12 12 11 10 10 9 9 9 9 8 7 7 6 6 4 5 5 7 8 8 9 9 7 6 6 5 6 7 6 5
17 18 19 19 19 18 15 14 14 15 16 16 17 17 17 16 15 16 15 15 14 14 13 14 13 14 14 14 14 12 12 11 10 8 7 7 7 6 6 5 5 5 7 7 7 8 9 9 9 10 12 11 11 12 12 12 11 12 12 10 10 9 9 9 9 9 7 7 6 6 5 5 3 6 6 7 7 8 7 8 7 6 7 5 6
20 21 22 22 19 15 15 14 16 16 15 15 15 16 13 14 16 17 17 16 14 14 14 15 15 16 16 15 15 14 12 12 12 10 9 9 9 8 7 6 5 6 6 7 7 8 9 9 9 9 10 12 12 12 12 13 12 11 11 11 10 10 9 9 9 9 8 7 6 6 5 5 6 5 7 8 9 7 7 6 7 7 6 6 5
21 21 20 18 15 15 17 17 16 15 15 15 15 14 12 17 17 18 17 17 16 16 17 16 15 14 14 15 15 15 13 12 12 11 11 11 11 9 11 8 7 7 6 7 8 9 9 9 9 9 10 11 11 12 12 13 13 12 12 11 11 10 10 9 9 9 9 8 7 6 4 4 4 5 5 2 6 2 4 3 2 4 5 6 6
20 20 19 15 15 17 18 18 17 15 15 14 14 15 17 17 18 18 16 16 16 18 18 16 15 15 14 13 14 13 14 13 12 13 12 12 12 12 11 10 11 9 8 9 8 9 9 10 10 10 10 10 11 12 13 13 14 14 12 11 12 12 10 9 7 8 9 7 8 9 8 3 3 6 7 2 3 5 5 7 5 3 6 6 6
19 18 15 15 18 19 19 18 16 15 14 14 15 16 18 18 18 18 16 15 14 15 17 14 15 15 16 16 15 15 15 13 12 13 13 12 12 12 11 11 12 11 12 11 9 9 10 10 10 11 11 11 11 12 13 14 13 13 12 12 12 11 10 8 8 8 8 8 9 10 11 8 7 5 3 6 7 5 4 4 6 7 3 4 6
18 17 16 17 18 19 19 17 15 15 15 16 16 17 19 20 20 20 16 15 15 15 16 15 14 15 16 16 15 14 14 14 14 13 12 11 12 12 12 12 13 14 13 13 11 10 10 10 11 11 11 11 11 11 13 13 13 13 13 13 12 11 9 9 9 9 8 8 9 9 10 10 10 9 9 7 7 7 7 5 5 5 6 6 6
18 16 18 18 19 19 18 16 16 17 17 17 17 17 18 19 19 17 17 16 16 19 18 17 14 13 13 11 12 12 12 11 11 10 9 9 11 12 12 12 14 14 15 14 12 12 12 11 11 11 11 12 12 12 13 14 16 14 12 10 8 10 11 9 10 10 9 8 7 7 7 7 7 6 7 8 8 8 9 9 9 7 7 6 7
17 16 18 18 18 17 16 15 17 17 17 17 18 17 18 18 18 17 18 16 16 19 19 16 14 12 11 11 13 11 10 10 10 10 10 10 11 12 12 12 12 13 13 15 15 14 13 13 12 12 12 13 11 13 15 16 15 13 12 12 11 11 12 10 9 10 9 9 9 7 6 7 7 7 6 6 9 11 10 9 8 9 9 7 7
16 18 18 16 16 17 17 18 19 19 16 16 16 17 18 18 18 18 18 16 15 15 18 18 15 14 12 12 12 12 12 10 10 10 10 11 11 12 12 11 11 12 13 13 15 14 15 14 13 13 12 12 12 11 13 14 14 12 11 11 12 14 12 11 9 8 6 6 8 8 8 8 7 7 7 8 8 9 9 10 10 11 10 11 8
17 16 17 16 16 17 17 18 20 20 16 16 16 18 17 17 16 18 17 17 15 14 15 14 14 13 13 13 12 11 12 10 11 12 12 12 12 12 12 12 13 13 13 14 15 15 14 14 15 15 13 12 13 10 7 10 12 12 10 10 13 14 14 14 11 7 6 5 5 7 8 9 9 8 7 7 7 7 9 10 9 8 10 10 7
16 17 16 14 16 18 20 20 18 17 16 17 19 18 17 16 16 17 17 16 15 15 15 14 14 13 12 12 12 11 11 12 11 12 11 11 11 13 14 13 14 14 15 15 17 16 14 14 13 13 12 11 11 12 8 10 10 11 10 13 13 13 12 13 12 7 8 7 6 8 8 8 9 9 8 7 8 7 7 8 7 7 9 8 6
16 16 14 15 16 18 19 18 16 16 18 19 18 17 15 15 16 16 17 16 15 15 15 14 14 13 13 13 13 12 12 12 12 12 13 13 13 14 14 15 15 16 15 16 15 15 14 14 14 14 13 12 12 12 11 9 10 9 10 10 12 11 11 12 11 9 8 8 8 5 5 6 7 8 9 8 7 8 9 8 8 7 9 9 7
15 14 15 16 17 20 17 16 16 16 18 18 16 15 15 15 15 17 17 16 15 16 15 16 14 14 14 13 13 12 12 12 12 12 13 14 14 15 14 14 14 13 14 13 13 14 14 14 14 13 12 12 11 11 11 10 9 10 9 10 10 10 12 12 12 11 7 6 5 5 5 6 6 7 7 8 7 8 8 8 8 9 9 10 9
15 16 16 17 19 18 16 16 16 18 19 17 17 16 16 16 16 16 17 16 16 16 16 15 14 13 14 14 14 13 12 12 11 11 13 13 14 14 14 13 12 13 12 13 13 13 12 12 12 12 14 14 14 13 11 10 9 9 9 9 10 9 10 13 12 12 11 10 8 7 6 6 7 7 7 7 8 7 7 8 8 8 9 9 8
16 17 16 18 19 17 15 17 17 15 15 16 16 16 17 16 16 17 16 15 16 16 15 14 14 14 14 13 13 13 13 13 12 14 14 13 13 12 12 13 13 13 12 12 12 12 12 12 13 13 12 11 11 11 11 11 10 9 9 10 11 10 11 12 11 12 11 11 9 7 8 7 7 8 8 7 7 7 8 8 8 9 8 10 9
16 17 17 18 17 17 16 16 16 19 18 17 19 16 13 15 15 16 16 16 16 15 15 14 14 14 13 13 13 13 13 13 13 14 13 13 13 12 12 12 13 13 13 12 13 14 13 14 13 12 12 12 13 13 12 12 12 11 11 11 10 11 11 11 11 12 12 11 11 9 7 8 7 7 7 7 7 7 7 8 8 8 8 10 9
17 18 17 16 16 16 16 16 19 18 16 16 15 16 16 14 15 14 16 16 15 14 14 13 13 11 11 12 14 14 13 13 13 14 13 13 14 14 14 14 14 14 13 13 13 13 13 13 13 13 12 13 13 13 13 13 13 12 12 11 12 12 11 12 11 12 11 12 12 11 12 8 7 6 7 7 7 7 7 8 9 9 8 8 10
17 17 16 18 17 16 17 19 16 17 15 16 17 17 17 15 15 15 15 15 15 14 14 14 13 12 13 13 13 13 14 14 14 13 13 14 15 15 15 15 14 13 13 14 14 14 14 14 14 14 15 14 14 14 14 14 14 14 12 11 11 12 13 13 12 12 10 10 10 11 12 11 8 7 8 8 7 7 7 8 8 9 9 8 8
16 17 17 16 17 16 17 16 17 14 14 13 15 16 16 14 15 15 16 16 15 15 14 13 13 13 14 15 15 14 15 13 14 15 15 15 14 14 14 14 14 14 14 14 14 15 15 15 15 15 15 14 14 14 13 13 14 15 13 14 14 14 14 13 12 14 14 13 10 9 10 10 8 8 9 10 8 7 7 8 8 9 9 8 9
17 15 18 19 16 17 15 11 13 14 14 18 15 11 13 15 14 15 14 14 15 14 14 14 13 13 15 15 15 14 14 13 15 15 15 14 14 13 14 14 15 14 14 14 15 14 14 15 14 15 14 14 14 14 14 13 14 14 14 12 13 15 15 15 14 15 14 12 9 10 9 9 9 8 8 8 8 8 7 8 9 9 9 9 8
16 19 17 16 17 14 16 15 13 15 14 15 15 16 15 15 15 14 15 15 15 15 14 13 14 14 15 15 14 14 14 15 15 14 14 14 14 14 14 14 14 14 14 14 14 14 14 14 15 14 14 14 14 14 13 13 13 14 14 14 13 13 13 14 15 15 14 11 11 10 10 9 8 9 9 10 10 9 8 9 10 9 9 10 10
19 15 15 16 14 18 14 13 13 13 14 14 13 14 14 14 14 14 15 16 15 14 14 14 14 15 16 15 15 14 15 15 15 14 15 15 15 14 13 14 14 14 14 14 14 15 15 15 15 15 14 14 14 12 12 11 13 13 13 13 13 13 13 13 13 12 11 11 11 11 11 11 10 10 10 10 9 9 10 10 10 9 10 10 9
15 18 18 15 18 15 13 13 12 13 14 15 15 15 15 14 14 15 15 15 14 14 14 14 15 16 15 15 16 15 15 15 15 14 16 16 15 14 13 14 14 14 14 14 14 14 14 14 14 14 15 14 14 14 13 13 13 13 14 14 13 12 12 12 12 12 13 12 12 11 10 9 10 10 10 11 10 11 11 10 11 10 11 10 9
20 17 16 18 16 14 14 13 12 12 12 15 14 14 15 15 14 14 14 15 15 14 14 15 15 15 15 16 15 15 16 16 16 15 15 15 14 14 14 14 14 15 15 14 14 13 13 14 14 15 15 15 14 13 14 14 14 14 13 12 13 13 13 13 12 12 11 11 11 11 11 13 13 12 10 9 9 11 11 11 12 11 10 10 11
15 17 16 17 16 16 12 14 13 13 13 13 14 15 15 15 15 15 14 14 14 14 15 15 15 16 16 15 15 16 15 15 15 15 15 15 15 15 15 15 14 15 15 14 14 14 13 14 15 14 15 15 15 15 14 15 15 14 14 12 12 12 12 11 10 10 10 9 9 9 9 9 9 10 9 8 7 6 5 8 10 10 9 10 11
15 16 18 17 18 17 16 15 11 10 14 13 13 13 14 15 15 15 14 14 13 14 15 15 15 16 15 16 16 15 15 15 15 15 15 15 15 15 15 14 14 15 15 15 14 14 13 13 14 14 14 14 14 14 14 15 13 12 11 12 13 13 13 13 13 13 12 10 10 10 9 8 6 6 5 3 4 6 7 7 7 8 10 11 12
17 17 17 17 17 15 16 14 17 19 15 15 14 13 13 14 14 14 14 15 14 15 15 15 16 15 15 16 16 15 14 15 16 16 16 16 15 15 14 14 14 14 13 14 14 14 14 14 14 14 14 14 14 14 12 12 12 12 11 12 13 14 14 13 13 13 13 12 11 11 11 10 10 13 14 12 11 10 8 8 8 9 9 11 12
16 17 17 17 17 16 14 17 16 15 15 15 14 14 14 15 15 14 15 14 14 15 15 15 15 15 16 16 16 16 16 16 16 16 16 15 15 15 14 14 14 14 14 14 14 14 14 14 14 14 13 13 13 12 16 22 20 13 10 11 13 13 13 13 13 14 13 13 13 12 11 18 20 21 19 19 19 19 21 15 11 9 10 10 11
13 12 16 15 16 15 16 15 14 16 15 14 13 13 15 14 14 15 15 14 15 15 15 15 16 16 16 16 16 16 16 17 16 15 15 15 15 14 14 14 14 14 14 14 13 14 13 13 14 13 13 13 12 12 21 22 23 24 17 13 12 13 12 13 13 13 14 13 12 13 11 15 18 20 19 24 22 23 23 23 22 21 17 13 11
13 13 17 17 16 16 15 15 15 15 15 13 14 14 14 14 14 15 14 14 14 15 15 15 16 16 16 16 15 16 17 17 16 15 15 15 15 15 14 14 14 14 13 12 13 13 13 13 12 13 13 13 13 17 22 23 23 23 21 14 12 12 12 13 13 13 13 12 12 12 12 12 12 14 13 15 19 23 23 22 23 22 22 23 23
13 13 16 17 15 16 15 15 14 13 14 15 15 14 14 14 15 15 14 14 14 15 15 16 15 15 16 15 16 16 16 16 16 15 15 15 16 16 15 14 14 13 13 13 13 13 13 12 12 13 13 13 13 18 21 23 23 23 23 19 12 12 12 12 13 14 13 13 12 11 11 12 12 23 20 15 14 15 20 25 24 24 24 24 24
12 12 13 17 15 14 14 15 14 14 14 14 14 14 14 14 14 15 14 14 14 15 14 15 15 15 16 16 15 15 15 16 16 15 15 15 16 16 15 14 14 13 13 13 13 13 12 12 12 12 12 12 13 17 21 22 22 22 22 19 11 11 12 13 14 13 13 13 13 12 11 11 11 13 13 14 13 12 12 13 14 13 13 17 21
12 12 13 15 16 15 15 15 14 14 14 14 13 13 14 14 14 14 13 14 14 14 14 15 15 15 15 15 15 15 16 16 16 15 15 15 15 15 15 14 13 13 13 12 12 12 11 11 11 11 11 12 11 19 20 21 20 21 20 17 10 11 10 11 12 14 14 13 13 12 12 12 10 10 11 14 13 13 12 12 12 12 11 11 12
10 11 12 15 14 15 15 15 14 13 13 13 13 14 14 15 14 13 13 13 14 14 14 14 15 15 15 15 15 15 16 16 16 15 15 15 15 15 15 14 14 13 12 11 12 11 12 12 11 10 10 11 11 18 18 19 19 18 18 11 10 10 12 12 12 12 13 12 12 12 12 12 12 11 15 22 19 13 12 14 14 13 13 12 12
11 10 12 13 14 14 14 14 14 14 13 13 13 13 14 15 14 13 13 13 13 13 14 14 15 15 15 15 15 16 16 16 16 16 15 15 15 16 15 12 13 13 13 12 12 12 11 11 12 11 11 11 11 15 17 16 16 16 13 8 8 9 10 11 11 12 12 12 12 12 13 12 12 12 16 20 22 20 12 13 14 14 13 12 11
10 10 10 13 13 13 14 14 15 14 13 13 13 14 15 14 14 13 13 13 13 13 13 14 15 15 15 15 15 15 16 16 15 16 15 15 15 14 13 12 12 14 14 13 12 12 12 11 12 13 10 10 11 13 17 16 16 15 12 7 7 7 8 8 9 11 10 10 13 21 18 13 13 13 18 21 22 19 14 13 13 13 16 14 12
8 9 11 12 13 13 14 13 13 14 14 13 14 14 13 13 13 14 13 13 13 13 14 14 15 15 15 14 14 15 15 15 16 16 15 15 15 14 13 12 12 12 13 13 12 12 12 11 10 11 15 13 11 12 15 14 13 12 8 5 6 6 7 8 8 8 9 9 9 14 22 18 15 16 22 21 22 18 13 13 13 13 14 15 12
8 9 10 11 12 13 13 13 14 14 14 14 13 12 13 13 13 13 13 12 13 14 15 14 15 15 14 14 14 15 15 15 16 16 15 14 13 13 13 13 12 11 12 12 11 11 13 12 12 11 9 7 7 7 8 12 11 11 11 8 6 6 7 7 7 8 7 6 8 9 13 22 24 23 22 23 22 22 14 12 12 12 13 14 10
9 10 9 9 11 11 12 12 12 14 13 13 12 12 12 12 12 12 13 13 14 14 15 14 14 14 15 15 14 14 15 15 14 15 14 14 12 13 13 13 13 12 11 12 13 12 11 11 10 9 8 5 4 6 7 11 12 12 13 10 3 5 6 7 8 8 7 7 6 7 7 14 21 23 24 23 23 23 21 13 12 12 12 11 10
8 8 9 10 8 11 12 12 12 13 12 12 12 12 12 12 11 12 13 13 14 14 14 14 16 15 15 15 14 14 14 13 13 13 14 14 13 13 12 13 12 12 13 13 12 10 11 11 10 9 8 7 7 8 4 10 16 16 16 14 7 6 7 7 7 6 8 8 7 6 5 10 17 19 21 23 25 24 24 14 13 18 19 19 13
8 8 10 12 10 11 12 12 12 12 11 11 13 14 12 12 12 14 13 13 13 13 14 14 14 15 15 15 14 15 14 12 12 13 14 14 14 13 13 13 12 12 13 13 11 11 11 11 10 9 8 8 8 8 12 11 15 17 17 16 15 10 13 8 7 8 8 7 6 5 6 10 13 16 18 19 21 24 21 14 20 20 21 22 15
7 7 9 9 10 11 12 12 12 12 12 12 12 13 12 13 14 13 12 13 13 13 13 13 13 14 15 14 14 14 13 12 12 13 13 13 13 13 12 11 11 11 10 11 11 11 11 10 10 10 9 9 8 8 10 14 14 17 17 17 16 15 14 9 8 8 7 7 7 6 7 12 13 14 16 16 17 17 12 19 21 21 21 19 10
7 7 9 10 9 11 13 13 12 12 12 11 11 12 14 15 13 12 13 13 13 14 13 13 13 13 14 14 14 12 12 12 11 12 12 11 12 12 11 10 11 10 9 10 10 10 10 10 10 10 10 9 9 8 8 11 17 17 18 18 17 16 15 15 10 8 8 7 9 13 13 13 14 15 16 15 13 14 19 19 19 20 19 10 9
6 7 7 8 10 11 12 13 13 12 12 11 10 11 14 14 13 12 13 13 14 15 14 14 13 12 13 14 14 13 12 11 12 10 10 10 10 10 10 10 10 10 10 10 10 10 10 10 10 10 10 10 9 9 9 9 12 14 14 16 17 16 15 15 14 10 12 13 14 13 14 14 12 11 10 8 8 8 13 17 19 18 11 9 8
7 7 7 7 9 10 11 12 13 13 11 10 11 10 11 12 13 13 13 13 14 15 15 14 13 12 12 11 12 11 12 11 10 9 8 8 9 9 10 10 9 10 10 10 10 10 10 10 10 10 10 10 9 9 9 10 10 11 10 11 10 10 13 13 9 8 8 8 9 10 9 11 11 13 12 11 8 7 7 9 8 10 10 9 8
6 7 6 7 8 10 11 12 12 12 11 11 11 11 11 12 12 12 12 13 14 14 14 15 15 13 10 10 10 13 13 10 11 9 9 8 8 9 9 9 9 10 10 10 10 10 9 10 10 10 10 10 9 9 9 11 11 11 11 10 9 9 9 8 8 8 8 9 8 9 9 6 5 5 5 5 5 4 3 5 7 8 9 9 9
7 6 6 7 8 10 11 12 12 11 11 11 11 11 11 12 11 11 12 13 13 14 14 15 14 11 10 10 9 10 10 10 11 10 8 8 9 9 9 9 8 8 9 10 10 9 9 9 9 9 9 10 10 9 10 15 14 17 14 10 9 8 9 8 10 13 9 7 5 4 3 4 5 4 3 3 4 4 4 5 7 8 8 8 8
7 6 6 7 9 10 11 11 11 11 10 10 11 10 10 10 11 11 12 13 14 13 13 13 11 11 10 10 9 9 9 9 9 10 11 10 9 13 11 9 9 13 18 18 14 9 11 10 9 9 9 10 9 10 18 21 20 20 19 17 14 15 14 11 12 14 6 4 4 4 4 5 5 5 5 5 4 3 4 4 3 6 6 7 8
6 7 8 8 8 9 10 11 11 10 10 10 11 10 11 10 10 11 11 12 13 12 11 11 11 10 11 11 10 9 9 9 8 9 9 11 12 8 10 15 15 16 17 17 16 16 18 18 13 10 12 18 18 19 20 20 20 20 19 17 14 14 16 14 12 8 3 4 5 4 5 5 5 5 5 5 5 6 6 4 2 1 1 2 1
Wind_Direction
329 323 309 317 313 315 317 315 314 312 311 314 318 319 316 315 314 310 310 309 310 308 302 298 298 298 291 285 297 303 299 290 281 277 270 284 294 296 306 308 323 327 328 331 328 323 316 310 304 301 296 292 289 287 285 283 280 281 283 279 276 271 266 261 261 263 265 267 254 243 245 240 237 235 237 235 237 233 204 208 242 259 247 237 246
328 325 323 315 318 320 319 316 318 321 327 326 322 321 318 317 316 315 313 312 306 302 300 296 291 296 299 297 293 289 293 291 289 283 284 282 277 277 289 300 311 322 325 325 324 322 318 312 306 298 295 288 286 284 284 284 283 279 278 276 269 263 260 257 258 258 251 257 271 273 241 226 212 219 230 235 231 224 227 214 208 228 239 243 238
329 325 324 322 319 320 323 338 342 341 332 327 323 318 322 320 318 318 317 314 311 306 301 298 294 288 290 292 294 295 294 291 288 289 278 272 270 270 280 288 298 314 319 320 320 317 314 311 306 301 297 293 288 283 281 276 271 267 262 264 266 261 257 251 249 246 259 255 258 268 271 271 224 209 221 226 219 222 218 225 223 220 231 222 232
324 326 327 324 325 341 355 345 336 330 330 325 328 336 337 336 337 332 327 323 316 313 309 302 294 288 284 285 283 281 285 291 290 277 263 249 253 262 276 284 289 306 308 317 317 314 311 306 304 301 296 293 287 281 277 274 270 268 266 261 259 265 264 257 246 246 247 253 254 245 264 267 270 224 206 214 214 213 219 220 219 221 222 221 221
326 328 330 331 349 351 342 336 332 336 336 337 342 340 340 339 337 335 331 326 321 317 313 311 306 294 286 283 280 278 272 270 272 275 279 284 288 286 289 285 302 300 301 308 311 311 311 307 303 298 295 292 290 282 278 274 272 268 262 259 257 256 256 259 262 247 239 240 258 262 249 257 253 276 324 306 148 170 202 229 270 256 227 224 233
330 330 328 337 340 334 332 331 337 334 334 344 345 344 340 335 333 331 327 328 330 330 329 325 315 305 296 289 284 278 279 279 282 285 289 289 285 286 291 297 298 301 302 304 303 306 309 304 301 299 296 291 286 284 278 272 268 266 262 257 254 252 256 257 252 255 249 242 243 252 267 288 306 349 337 281 155 183 166 173 194 242 266 261 251
332 327 331 334 333 332 329 334 333 333 343 342 337 333 329 327 325 320 314 310 312 314 321 323 319 314 308 299 291 283 280 279 279 282 285 285 283 283 285 290 294 298 306 301 300 302 304 305 300 298 295 290 286 283 279 274 269 264 261 256 254 250 246 246 245 243 243 245 241 243 251 262 273 279 279 270 279 263 231 230 201 168 194 257 265
330 329 332 331 332 327 332 335 334 337 339 337 335 332 333 333 328 319 312 313 315 315 313 314 314 312 310 306 301 289 282 286 287 289 293 292 289 289 290 293 293 293 292 300 300 301 304 303 300 293 294 289 282 278 275 271 267 264 261 259 254 250 250 242 239 236 236 235 228 236 239 243 246 253 260 275 274 291 287 280 268 177 192 203 219
329 326 325 338 332 336 338 339 343 337 332 333 336 345 340 331 323 321 326 328 327 322 314 307 308 314 318 329 344 343 327 317 316 309 303 301 296 293 294 294 292 293 293 290 294 299 301 301 296 292 290 293 290 281 274 272 266 263 260 258 249 248 242 245 240 234 231 238 236 236 245 244 241 242 241 238 251 258 264 265 274 275 256 229 202
327 322 322 335 333 337 337 339 337 333 329 332 330 330 334 329 324 332 336 334 330 333 333 330 336 331 328 335 339 339 339 335 331 324 317 313 304 298 297 294 293 291 293 292 296 298 297 298 295 286 284 287 288 286 277 270 269 263 257 256 246 235 239 240 235 234 234 234 233 236 232 232 236 242 241 242 240 242 255 258 258 263 262 237 211
325 323 337 333 335 336 336 330 331 330 329 327 329 333 331 329 325 332 331 324 325 340 346 344 343 341 342 342 340 335 337 331 325 321 317 312 305 302 299 296 294 294 291 292 289 295 293 291 289 285 278 279 279 287 292 278 262 262 255 248 249 239 237 240 239 231 232 235 238 233 233 232 232 228 229 228 235 241 241 244 250 254 263 275 273
329 333 330 331 338 339 334 331 331 328 330 332 332 331 328 327 325 327 326 325 326 333 333 330 330 330 332 332 330 328 325 321 316 309 306 301 298 296 295 296 293 292 292 289 295 292 289 288 283 278 274 272 272 276 301 320 304 274 250 240 236 240 241 241 239 225 215 229 232 237 239 238 234 235 240 250 248 246 245 248 249 250 244 246 252
335 332 334 338 336 335 332 328 333 337 334 333 332 330 330 329 329 328 327 330 328 325 321 321 324 323 325 325 326 325 320 317 312 306 304 301 300 298 297 295 293 292 287 291 287 287 286 286 281 275 273 269 271 268 293 303 311 314 291 246 238 238 236 235 237 223 210 215 223 226 233 239 241 240 237 238 246 259 276 279 271 266 260 265 266
332 336 332 330 331 334 338 336 339 337 336 332 333 334 333 331 332 327 328 331 331 330 329 330 330 327 328 329 327 322 316 313 309 304 302 299 298 294 294 291 293 288 291 285 287 286 285 284 284 280 272 265 269 275 276 288 301 307 306 295 256 240 243 245 240 241 228 221 228 232 232 236 239 240 239 235 235 242 247 257 267 267 267 265 266
334 336 335 331 331 334 336 338 338 337 334 332 332 332 332 332 329 327 326 329 331 332 330 326 323 322 319 318 315 311 308 305 304 302 299 297 296 295 294 294 289 292 289 292 293 291 287 285 282 282 276 273 273 269 266 271 295 292 295 292 284 267 247 242 243 238 231 228 228 231 234 237 242 249 251 247 242 237 242 247 252 260 259 256 258
339 335 333 337 339 338 334 337 339 331 339 338 334 332 332 331 329 327 325 325 327 328 327 325 323 321 318 312 312 313 315 315 309 307 303 303 301 298 295 291 291 290 291 292 289 286 285 286 286 277 270 267 267 266 264 264 272 284 284 289 289 282 268 259 255 247 238 230 227 229 237 240 242 243 245 250 251 248 242 239 244 252 257 260 260
335 335 338 336 335 335 335 336 330 331 339 335 333 333 330 330 329 330 327 325 327 327 327 327 325 322 321 321 322 322 317 312 309 307 306 303 299 296 294 293 292 290 289 290 291 289 288 286 283 287 291 286 281 274 271 269 269 276 274 273 275 280 273 263 257 253 251 244 235 225 228 233 234 234 240 246 250 253 248 244 239 241 245 254 256
336 337 337 334 336 335 334 332 337 338 338 331 328 330 336 329 328 326 325 328 328 328 326 326 323 320 320 320 319 317 313 311 309 306 304 301 299 297 293 292 293 293 293 290 287 285 283 282 282 280 276 275 274 277 276 271 265 265 271 269 265 264 266 263 257 255 253 251 249 241 229 232 230 232 237 238 241 243 245 247 244 238 242 249 253
342 339 336 334 340 337 336 335 333 336 337 325 325 329 335 329 325 323 326 326 328 326 325 322 321 321 319 319 318 316 315 312 309 306 303 300 299 296 295 293 292 291 290 289 287 284 281 279 278 275 274 271 269 269 270 269 263 261 260 263 260 257 257 256 252 251 255 253 251 249 246 239 234 232 233 237 242 247 249 247 245 241 238 239 247
346 339 339 337 342 337 338 332 342 330 329 327 332 335 335 345 332 326 325 326 324 324 324 321 324 320 319 317 317 315 313 311 309 308 305 303 300 298 295 292 291 291 290 288 286 284 281 279 276 274 272 271 269 266 263 263 265 260 264 264 262 258 254 252 252 249 249 248 249 250 246 242 235 235 238 240 240 240 241 247 250 246 239 235 237
343 338 335 344 335 338 334 333 341 330 326 330 332 331 331 327 326 327 325 325 323 328 328 325 323 321 321 321 320 318 314 311 310 308 306 302 300 299 297 295 293 289 289 288 286 282 281 279 276 274 272 271 268 265 262 261 258 257 258 257 256 254 255 256 255 252 249 249 245 244 246 243 237 235 240 240 237 237 236 238 243 246 246 236 232
352 333 335 344 337 332 318 341 332 325 324 332 334 329 334 325 327 326 324 322 325 323 323 325 323 322 320 318 317 317 315 314 312 309 305 305 304 302 301 299 295 293 290 288 286 283 280 278 276 273 272 272 271 271 270 265 263 260 260 258 255 251 250 250 251 252 251 251 251 247 238 238 236 233 232 240 243 243 239 240 237 239 241 241 233
338 335 343 336 334 323 329 348 333 326 324 329 332 332 331 327 326 325 323 322 324 321 321 321 318 318 319 318 316 316 316 314 311 309 306 306 305 302 302 299 296 294 289 285 283 281 279 279 277 274 272 268 265 263 260 259 260 259 259 259 261 260 256 251 249 250 250 250 251 250 247 239 234 229 225 232 236 241 245 245 244 241 240 238 237
338 344 336 333 326 324 346 333 331 330 327 326 327 326 326 326 325 322 322 324 321 321 321 319 318 317 318 316 317 317 315 313 311 309 307 306 304 304 302 299 297 294 291 288 285 282 279 276 275 274 271 269 268 266 264 259 259 260 262 261 259 257 254 252 251 252 255 253 248 245 241 240 238 233 231 231 229 233 236 238 244 246 246 244 237
332 339 340 331 326 338 330 332 329 328 321 334 335 329 326 325 324 324 324 323 320 321 320 320 317 317 314 316 318 316 314 313 310 308 306 306 305 304 301 298 297 295 292 290 286 283 280 276 273 270 268 266 264 262 260 258 257 257 257 260 261 260 258 257 257 255 251 251 252 253 254 249 237 236 235 234 232 230 230 233 237 239 241 244 242
339 341 333 330 334 332 329 329 326 325 324 326 329 323 323 323 323 324 321 319 320 322 319 318 316 315 315 316 316 316 315 312 310 308 306 305 304 302 300 297 296 295 293 289 287 283 280 278 274 272 270 267 266 264 263 262 261 260 259 256 253 249 250 249 250 252 256 257 252 250 251 243 234 227 225 227 225 221 223 231 235 237 240 243 245
331 334 333 333 327 323 330 325 330 326 323 323 325 327 327 325 323 324 323 320 320 319 317 317 315 315 316 316 316 317 314 312 309 308 306 304 302 301 299 298 296 293 292 289 286 283 279 276 273 270 268 265 263 260 258 256 254 252 249 252 259 253 249 250 255 256 256 268 273 266 259 265 249 233 230 229 235 252 246 236 230 237 241 244 246
337 336 331 326 327 328 334 322 312 321 323 323 323 320 322 325 325 324 323 321 321 320 318 314 315 315 316 316 317 316 313 310 308 307 305 304 302 301 299 297 294 291 289 287 285 282 280 276 274 271 268 265 262 260 257 256 253 251 246 241 245 248 248 247 250 254 256 255 259 267 277 277 278 267 251 257 264 263 262 270 267 242 233 243 246
337 337 329 323 325 327 324 321 326 339 332 321 320 320 322 322 321 323 322 322 319 317 318 314 315 316 315 317 315 313 311 308 307 306 305 304 302 301 298 296 292 288 285 283 281 279 277 275 271 269 267 263 261 258 256 252 250 246 244 246 245 245 246 247 247 247 250 252 249 251 253 254 253 261 260 253 254 257 261 262 260 265 254 235 242
329 334 327 323 328 324 322 319 331 330 322 320 318 322 324 323 321 322 322 319 318 318 314 313 314 314 315 314 313 312 310 310 308 307 305 304 303 301 298 294 291 288 284 281 279 277 272 270 269 267 264 262 258 255 252 250 247 243 238 241 243 244 245 246 247 250 248 248 253 251 251 256 258 256 257 254 254 258 259 256 257 258 267 268 251
322 328 325 325 324 323 320 326 321 320 321 317 316 319 322 318 320 322 319 319 320 316 314 315 315 315 315 312 313 312 311 310 309 306 305 303 301 299 296 293 290 287 283 280 278 276 272 269 267 266 265 261 257 253 253 253 251 249 243 234 236 240 243 245 249 253 252 247 246 249 249 251 254 256 256 256 258 256 255 255 253 254 257 258 269
320 321 328 327 322 323 321 321 321 318 315 317 319 319 317 319 320 319 318 319 316 315 316 314 314 313 312 313 313 313 311 309 309 307 306 304 302 300 296 292 289 287 285 282 278 272 269 267 266 264 261 258 257 254 255 255 254 252 249 243 236 233 231 234 238 245 250 251 248 244 241 239 237 239 243 248 252 252 254 257 258 260 259 260 258
316 319 325 326 321 323 322 320 319 315 315 318 319 317 318 320 318 318 319 318 316 320 317 313 314 313 314 313 313 312 310 308 309 309 308 305 302 300 297 296 292 288 286 281 273 269 265 262 260 261 261 259 257 257 258 258 257 255 253 248 242 234 231 230 230 233 235 239 244 246 243 234 234 238 239 237 235 242 251 253 255 255 256 257 258
311 315 315 322 328 321 318 318 315 315 315 315 314 314 313 314 315 318 316 313 315 316 315 313 312 313 314 314 312 311 309 307 308 308 308 304 301 299 298 296 293 292 288 282 278 273 269 261 254 252 257 257 255 258 259 258 258 257 255 251 240 237 233 230 228 227 229 230 231 239 245 242 230 227 231 232 228 232 236 244 247 249 250 252 254
311 310 316 320 321 320 317 316 316 319 317 317 316 315 315 315 317 316 314 315 314 313 313 313 313 313 313 314 313 311 308 307 306 306 307 304 300 299 299 300 299 297 295 292 290 289 278 266 257 252 254 258 255 259 262 261 260 258 256 253 239 237 237 233 226 225 224 223 224 229 235 243 240 228 223 222 223 226 234 240 247 251 252 255 256
313 312 313 318 323 317 315 314 316 316 316 315 312 315 315 315 317 311 312 313 313 314 312 313 313 314 314 313 312 310 309 307 305 305 305 303 302 302 303 303 301 298 294 291 289 281 281 279 272 261 254 257 258 267 269 269 268 266 262 252 239 231 230 231 233 227 224 223 222 221 226 233 237 239 234 229 225 220 223 232 240 246 252 256 255
313 312 308 315 318 313 313 314 315 316 314 313 315 316 313 313 312 311 310 311 314 312 314 315 314 314 314 313 312 309 308 307 305 305 305 304 304 304 302 302 301 300 298 296 291 288 284 286 286 280 269 266 273 274 278 279 275 273 268 255 245 242 238 227 224 227 223 220 218 218 219 222 228 231 234 234 232 226 220 223 230 237 244 250 256
312 316 310 308 318 320 317 317 318 311 312 313 315 315 312 308 307 308 310 312 312 311 314 314 313 313 313 312 310 308 306 307 306 304 304 303 301 300 298 299 298 300 300 298 296 294 293 289 288 286 269 266 277 279 285 285 286 284 281 269 256 253 253 255 237 219 222 219 217 219 218 218 223 227 230 232 232 229 226 224 227 234 239 246 249
313 305 301 313 321 319 319 319 309 309 314 313 314 313 307 305 307 309 310 310 312 313 314 315 313 312 311 310 309 308 307 305 304 302 302 301 300 300 298 297 296 296 295 298 296 297 297 294 288 286 288 278 272 278 286 295 296 290 287 271 264 263 268 268 275 261 221 219 217 222 225 222 219 224 227 230 231 227 225 222 224 228 235 241 243
306 300 313 315 311 320 321 313 315 315 316 316 312 307 304 304 306 309 309 309 312 314 313 312 311 310 310 310 309 308 306 304 302 301 300 298 298 299 300 299 297 295 296 299 299 296 296 296 297 292 285 261 262 272 281 301 309 302 283 262 251 256 257 261 263 271 278 242 221 220 222 227 229 228 230 230 230 230 224 221 220 224 226 233 236
301 297 305 306 316 320 308 306 310 314 314 311 306 305 304 303 304 304 306 309 312 313 313 311 310 310 310 310 309 306 304 302 300 299 300 300 300 300 301 300 297 296 293 294 295 295 297 303 307 306 308 316 260 266 286 317 341 347 349 353 308 276 277 279 278 271 261 268 258 232 222 224 230 232 232 232 233 232 230 224 221 224 224 231 235
292 305 301 296 322 309 311 308 312 313 310 307 306 303 303 303 302 300 304 310 310 311 311 311 311 310 309 307 306 304 303 301 300 300 302 303 304 303 300 299 299 298 300 300 298 310 319 319 323 323 326 340 344 335 336 349 355 351 347 345 337 331 325 323 314 288 272 261 256 264 241 227 229 231 232 234 235 233 230 230 227 226 228 231 235
297 298 303 324 320 310 308 307 312 315 311 309 307 302 300 300 298 302 308 309 309 307 309 310 309 308 307 305 304 304 304 302 300 302 303 304 306 306 306 304 304 309 308 312 321 323 322 325 326 331 336 342 344 344 357 356 349 345 342 339 337 333 326 322 312 303 298 284 275 262 256 258 251 241 239 240 240 238 233 226 229 229 228 229 234
287 295 297 295 306 310 307 307 311 310 312 310 305 300 298 299 299 307 309 309 308 309 309 307 306 305 305 305 304 303 302 301 301 304 306 305 306 307 309 309 312 311 312 324 327 325 326 327 330 330 334 337 340 343 343 346 344 340 336 334 332 331 329 318 307 299 296 289 290 290 283 269 262 261 256 250 246 244 235 230 228 227 228 230 226
288 285 293 309 314 302 302 304 306 307 309 308 303 298 299 299 302 309 309 309 309 309 308 304 303 303 303 302 302 302 303 302 303 307 307 309 309 313 314 317 313 310 318 328 321 323 326 328 329 329 330 330 334 337 340 343 340 336 333 330 328 326 326 324 314 302 294 293 293 293 291 294 281 262 256 258 261 256 245 234 229 224 224 222 219
281 286 296 300 302 296 296 295 301 305 306 303 300 299 298 300 306 309 310 310 310 309 307 304 303 304 303 303 304 307 306 306 306 304 305 307 309 313 317 317 318 323 327 325 322 328 328 330 330 329 328 328 331 336 340 340 335 333 330 325 323 324 322 320 315 303 299 298 297 296 297 294 286 267 252 247 241 237 239 232 223 219 216 215 209
280 284 297 300 301 296 294 297 297 306 304 300 298 296 296 301 306 310 312 311 310 309 308 307 307 306 306 305 310 312 314 310 308 310 310 312 314 315 315 316 317 320 321 321 323 331 331 333 331 329 328 329 329 336 338 335 336 332 329 323 325 325 323 322 318 313 314 307 301 298 295 291 281 282 267 247 238 253 250 229 217 214 215 211 207
278 280 287 296 295 290 292 296 296 301 303 300 297 296 299 302 305 308 310 311 311 312 311 308 307 306 308 311 311 313 314 313 315 315 315 316 315 312 310 311 313 313 314 322 324 332 334 335 332 332 334 331 330 336 337 337 335 332 326 325 324 323 325 320 315 317 312 304 297 293 290 290 276 261 254 233 228 238 239 219 207 207 212 210 210
274 277 278 277 285 288 288 291 292 296 298 298 296 299 302 304 307 309 312 312 312 312 310 306 305 308 310 314 314 313 315 315 315 315 311 311 311 311 309 305 304 302 318 324 324 332 337 336 331 336 337 331 331 335 336 334 334 333 329 325 327 328 325 321 316 317 313 302 305 307 329 336 340 316 271 247 245 228 225 211 200 200 201 203 209
269 267 265 271 275 280 284 288 290 294 294 294 296 299 301 304 308 310 313 313 314 313 312 310 309 309 310 315 315 313 314 316 317 319 320 315 309 315 315 318 320 325 330 333 336 338 342 341 338 342 340 333 329 329 333 337 337 335 332 329 328 335 337 332 329 324 319 333 345 347 7 357 347 351 356 350 322 262 218 209 204 198 198 200 203
261 266 267 264 271 273 277 283 287 291 292 295 296 297 301 305 309 311 313 313 314 315 312 309 311 310 311 312 312 313 314 316 317 321 323 323 322 323 326 328 328 331 337 340 342 344 347 349 347 341 341 341 335 335 336 338 340 340 337 335 333 341 347 346 349 340 13 14 8 9 8 4 1 5 2 351 351 3 7 4 0 346 216 197 181